Weather in Dubrovka

Russia / Tomsk District     56°43′44″N   86°26′33″E
temp.,
°C
wind,
m/s
gust,
m/s
humid.,
%
clouds,
%
prec.,
mm/h
press.,
hPa
HPBL,
m
21 june, mon
mon2101:00+8ssw5119296 0.0 1009358
04:00+6s49975 0.0 1010182
07:00+8s489019 0.0 1010292
10:00+13s337138 0.0 1009756
13:00+16se3459100 0.1 10081534
16:00+17se235875 0.1 10071040
19:00+12wsw5882100 0.3 1008334
22:00+10nw0097100 1.7 100916
22 june, tue
tue2201:00+10ese249890 3.4 1008148
04:00+10ese239695 0.0 100771
07:00+11se1190100 0.1 1007159
10:00+14ene2277100 0.1 1007783
13:00+15ene2270100 0.1 10071045
16:00+13sse3592100 1.5 1008267
19:00+14s368422 2.6 1008755
22:00+10s36955 1.0 1008107
23 june, wed
wed2301:00+8sw4897100 1.1 1008161
04:00+7ssw369715 0.0 1009111
07:00+9wsw2297100 0.0 1010174
10:00+11w458795 0.1 1011745
13:00+12wnw457294 0.3 10121254
16:00+13nnw226699 0.1 1012867
19:00+14sse126598 0.1 1012759
22:00+10sse22865 0.0 101216
24 june, thu
thu2401:00+8sse2291100 0.0 101215
04:00+7ese349593 0.0 101067
07:00+9ese469089 0.0 1009201
10:00+14e6971100 0.0 1008812
13:00+18e6958100 0.0 10061805
16:00+13s4991100 1.7 1006338
19:00+13ese1193100 2.8 100748
22:00+11e3798100 0.4 1007199
25 june, fri
fri2501:00+9s369584 0.4 1007107
04:00+8se369429 0.0 100893
07:00+10se489295 0.1 1008573
10:00+11se4989100 0.1 1009637
13:00+13sse6877100 0.1 1009969
16:00+11se5986100 0.2 1009699
19:00+11sse5887100 0.3 1009582
22:00+11se3787100 0.0 1009307